Time,TemperatureF,DewpointF,PressureIn,WindDirection,WindDirectionDegrees,WindSpeedMPH,WindSpeedGustMPH,Humidity,HourlyPrecipIn,Conditions,Clouds,dailyrainin,SolarRadiationWatts/m^2,SoftwareType,DateUTC
2013-03-09 02:00:00,33.0,32.0,30.17,SE,135,0.0,-999.0,97,-99.99,,,-99.99,0.000000,,2013-03-09 08:00:00,
2013-03-09 02:52:00,33.0,32.0,30.17,SE,135,0.0,-999.0,97,-99.99,,,-99.99,0.000000,,2013-03-09 08:52:00,
2013-03-09 03:00:00,32.0,31.0,30.17,NE,55,0.0,-999.0,97,-99.99,,,-99.99,0.000000,,2013-03-09 09:00:00,
2013-03-09 03:52:00,32.0,31.0,30.17,NE,55,0.0,-999.0,97,-99.99,,,-99.99,0.000000,,2013-03-09 09:52:00,
2013-03-09 04:00:00,35.0,34.0,30.16,North,349,1.0,-999.0,97,-99.99,,,-99.99,0.000000,,2013-03-09 10:00:00,
2013-03-09 04:52:00,35.0,34.0,30.16,North,349,1.0,-999.0,97,-99.99,,,-99.99,0.000000,,2013-03-09 10:52:00,
2013-03-09 05:00:00,36.0,34.0,30.18,NNW,337,1.0,-999.0,92,-99.99,,,-99.99,0.000000,,2013-03-09 11:00:00,
2013-03-09 05:52:00,36.0,34.0,30.18,NNW,337,1.0,-999.0,92,-99.99,,,-99.99,0.000000,,2013-03-09 11:52:00,
2013-03-09 06:00:00,34.0,32.0,30.18,NNW,346,1.0,-999.0,92,-99.99,,,-99.99,0.110000,,2013-03-09 12:00:00,
2013-03-09 06:52:00,34.0,32.0,30.18,NNW,346,1.0,-999.0,92,-99.99,,,-99.99,0.110000,,2013-03-09 12:52:00,
2013-03-09 07:00:00,41.0,38.0,30.19,NW,323,1.0,-999.0,88,-99.99,,,-99.99,52.630001,,2013-03-09 13:00:00,
2013-03-09 07:52:00,41.0,38.0,30.19,NW,323,1.0,-999.0,88,-99.99,,,-99.99,52.630001,,2013-03-09 13:52:00,
2013-03-09 08:00:00,47.0,31.0,30.19,SSE,155,1.0,-999.0,55,-99.99,,,-99.99,81.690002,,2013-03-09 14:00:00,
2013-03-09 08:52:00,47.0,31.0,30.19,SSE,155,1.0,-999.0,55,-99.99,,,-99.99,81.690002,,2013-03-09 14:52:00,
2013-03-09 09:00:00,49.0,29.0,30.19,SE,133,3.0,-999.0,46,-99.99,,,-99.99,64.510002,,2013-03-09 15:00:00,
2013-03-09 09:52:00,49.0,29.0,30.19,SE,133,3.0,-999.0,46,-99.99,,,-99.99,64.510002,,2013-03-09 15:52:00,
2013-03-09 10:00:00,54.0,28.0,30.21,SE,145,2.0,-999.0,37,-99.99,,,-99.99,166.100006,,2013-03-09 16:00:00,
2013-03-09 10:52:00,54.0,28.0,30.21,SE,145,2.0,-999.0,37,-99.99,,,-99.99,166.100006,,2013-03-09 16:52:00,
2013-03-09 11:00:00,60.0,30.0,30.20,South,177,4.0,-999.0,32,-99.99,,,-99.99,478.399994,,2013-03-09 17:00:00,
2013-03-09 11:52:00,60.0,30.0,30.20,South,177,4.0,-999.0,32,-99.99,,,-99.99,478.399994,,2013-03-09 17:52:00,
2013-03-09 12:00:00,65.0,33.0,30.18,South,183,5.0,-999.0,30,-99.99,,,-99.99,526.299988,,2013-03-09 18:00:00,
2013-03-09 12:52:00,65.0,33.0,30.18,South,183,5.0,-999.0,30,-99.99,,,-99.99,526.299988,,2013-03-09 18:52:00,
2013-03-09 13:00:00,68.0,30.0,30.13,SSE,165,6.0,-999.0,24,-99.99,,,-99.99,658.000000,,2013-03-09 19:00:00,
2013-03-09 13:52:00,68.0,30.0,30.13,SSE,165,6.0,-999.0,24,-99.99,,,-99.99,658.000000,,2013-03-09 19:52:00,
2013-03-09 14:00:00,69.0,30.0,30.12,SSE,159,6.0,-999.0,24,-99.99,,,-99.99,661.000000,,2013-03-09 20:00:00,
2013-03-09 14:52:00,69.0,30.0,30.12,SSE,159,6.0,-999.0,24,-99.99,,,-99.99,661.000000,,2013-03-09 20:52:00,
2013-03-09 15:00:00,66.0,31.0,30.13,South,169,6.0,-999.0,27,-99.99,,,-99.99,381.100006,,2013-03-09 21:00:00,
2013-03-09 15:52:00,66.0,31.0,30.13,South,169,6.0,-999.0,27,-99.99,,,-99.99,381.100006,,2013-03-09 21:52:00,
2013-03-09 16:00:00,65.0,32.0,30.11,SSE,166,6.0,-999.0,29,-99.99,,,-99.99,257.299988,,2013-03-09 22:00:00,
2013-03-09 16:52:00,65.0,32.0,30.11,SSE,166,6.0,-999.0,29,-99.99,,,-99.99,257.299988,,2013-03-09 22:52:00,
2013-03-09 17:00:00,64.0,33.0,30.11,SSE,158,5.0,-999.0,31,-99.99,,,-99.99,129.500000,,2013-03-09 23:00:00,
2013-03-09 17:52:00,64.0,33.0,30.11,SSE,158,5.0,-999.0,31,-99.99,,,-99.99,129.500000,,2013-03-09 23:52:00,
2013-03-09 18:00:00,61.0,35.0,30.11,SE,137,3.0,-999.0,37,-99.99,,,-99.99,25.840000,,2013-03-10 00:00:00,
2013-03-09 18:52:00,61.0,35.0,30.11,SE,137,3.0,-999.0,37,-99.99,,,-99.99,25.840000,,2013-03-10 00:52:00,
2013-03-09 19:00:00,59.0,36.0,30.10,SE,125,3.0,-999.0,43,-99.99,,,-99.99,0.000000,,2013-03-10 01:00:00,
2013-03-09 19:52:00,59.0,36.0,30.10,SE,125,3.0,-999.0,43,-99.99,,,-99.99,0.000000,,2013-03-10 01:52:00,
2013-03-09 20:00:00,58.0,35.0,30.10,SE,133,3.0,-999.0,43,-99.99,,,-99.99,0.000000,,2013-03-10 02:00:00,
2013-03-09 20:52:00,58.0,35.0,30.10,SE,133,3.0,-999.0,43,-99.99,,,-99.99,0.000000,,2013-03-10 02:52:00,
2013-03-09 21:00:00,59.0,34.0,30.09,SE,142,4.0,-999.0,39,-99.99,,,-99.99,0.000000,,2013-03-10 03:00:00,
2013-03-09 21:52:00,59.0,34.0,30.09,SE,142,4.0,-999.0,39,-99.99,,,-99.99,0.000000,,2013-03-10 03:52:00,
2013-03-09 22:00:00,57.0,32.0,30.08,SE,146,3.0,-999.0,39,-99.99,,,-99.99,0.000000,,2013-03-10 04:00:00,
2013-03-09 22:52:00,57.0,32.0,30.08,SE,146,3.0,-999.0,39,-99.99,,,-99.99,0.000000,,2013-03-10 04:52:00,
2013-03-09 23:00:00,56.0,32.0,30.09,SSE,152,2.0,-999.0,40,-99.99,,,-99.99,0.000000,,2013-03-10 05:00:00,
2013-03-09 23:52:00,56.0,32.0,30.09,SSE,152,2.0,-999.0,40,-99.99,,,-99.99,0.000000,,2013-03-10 05:52:00,